Location: Bailen
(14.1842°N, 120.7958°E)
Time: 12:25:55
(UTC+00:00)

Lacrosse 4 Rocket - Pass Details

Date: 25 April 2026
Orbit: 506 x 567 km, 68.0° (Epoch: 12 May)

Event Time Altitude Azimuth Distance (km) Brightness Sun altitude
Exits shadow 19:16:19 16° 76° (ENE) 1,376 4.0 -33.0°
Drops below altitude 10° 19:17:40 10° 58° (ENE) 1,728 4.7 -32.7°
Sets 19:20:14 0° 41° (NE) 2,624 5.7 -32.1°
